Location: Unspecified
(40.8819°N, 0.0000°E)
Time: 16:58:38
(UTC+00:00)

PCSat - Pass Details

Date: 15 April 2024
Orbit: 783 x 792 km, 67.1° (Epoch: 22 May)

Event Time Altitude Azimuth Distance (km) Brightness Sun altitude
Rises 22:48:53 0° 276° (W) 3,279 13.1 -36.3°
Drops below altitude 10° 22:54:38 10° 324° (NW) 2,360 12.7 -36.7°
Maximum altitude 22:54:44 10° 325° (NW) 2,359 12.7 -36.7°
Sets 23:00:39 0° 15° (NNE) 3,296 13.5 -37.1°
